CAPE
468 963 358 462 76 51 125 369 749 118 0 190 91 134 286 533 85 46 530 181 438 681 995 1366 1304 1529 1429 1587 1525 1399 1296 1468 1617 1752 1539 1641 1859 1907 1839 1737 1989 1891 1822 1939 1924 1482 1108 1217 885
833 334 851 457 87 19 41 338 487 166 36 271 19 523 609 714 1189 644 424 452 483 712 962 1310 1518 1634 1744 1819 1722 1517 1456 1585 1626 1470 1335 1495 2059 2014 1531 2068 1842 1799 1848 1646 1372 1941 953 1049 1048
238 970 592 294 191 162 121 204 349 325 131 112 8 716 961 1185 1069 490 610 465 625 653 942 1331 1488 1648 1722 1691 1680 1601 1523 1728 1825 1708 1800 1715 1593 1730 1930 1811 1296 1762 1864 911 1744 1561 825 869 1701
507 1080 705 312 257 425 444 309 358 391 143 59 639 773 893 1197 637 569 665 431 474 694 954 1441 1425 1555 1380 1618 1647 1564 1510 2103 1848 1675 1632 1666 1822 1782 1590 1820 1326 1765 1488 907 1706 1823 1250 1087 1428
1678 368 200 258 296 372 523 532 473 551 453 607 730 417 492 1118 1037 905 541 409 492 686 1025 1410 1513 1528 1456 1655 1807 1464 1757 1834 1680 1273 1497 1655 1874 1612 1882 1806 1214 1621 1479 1004 1776 1528 1612 1651 1828
618 50 133 124 213 309 586 695 486 735 1082 911 602 82 691 1308 900 799 503 407 599 724 1086 1359 1695 1589 1687 1754 1720 1531 1923 1490 1781 1323 1373 1445 1829 1876 1822 1795 1589 1571 1008 761 1721 1714 1526 1586 1281
417 124 197 169 300 416 470 815 586 1297 1161 1002 559 477 610 1175 839 1070 799 591 908 1079 1490 1813 1640 1744 1730 1655 1803 1919 1926 1419 1611 1596 1799 1560 1583 1867 1894 1770 1669 1543 807 830 1794 1444 1404 1674 1345
257 187 182 103 218 162 614 800 1224 1286 1073 867 629 564 423 1075 901 1019 1136 872 808 1019 1240 1912 1812 1701 1740 1728 2248 2094 1517 1500 2085 1606 1584 1764 1773 1809 1767 1555 1472 1634 1479 1625 1672 1563 1358 1101 1218
107 0 151 334 275 285 288 503 678 949 1045 967 833 975 926 1042 953 1027 1008 987 996 946 959 1589 1503 1773 1805 2071 2137 1945 1291 1442 2002 1507 1495 1635 1395 1453 1494 1486 1686 1560 1660 1623 1600 1025 919 1254 1169
0 0 0 65 440 460 299 390 390 1083 1088 1107 1045 1187 1116 961 982 752 559 616 714 866 1046 1279 1196 1452 1557 1825 2041 1910 1400 1593 1128 1384 1327 1722 1364 1529 1334 1263 1539 1534 1526 1580 1366 1011 1124 1086 1146
0 0 0 1 272 310 406 288 189 542 799 1047 939 1070 1070 1022 986 555 466 608 700 826 977 1138 1235 1631 1405 1494 2064 1438 1183 1981 1441 1378 1594 1229 973 1024 933 1347 1453 1475 1407 1312 1152 961 727 907 998
0 0 0 0 277 350 510 333 298 415 278 596 1197 1182 1150 1045 935 547 446 600 488 601 835 947 1089 1529 1388 1457 1674 1365 1314 1321 1838 1161 1503 1361 799 725 869 1039 1229 1252 1321 1286 945 1302 1059 260 932
0 0 0 0 80 487 454 315 163 62 642 1033 1312 1271 1167 1073 889 559 418 451 512 656 733 998 1239 1555 1568 1626 1544 1221 1175 834 1651 1539 1473 1018 656 475 521 742 1093 1018 1160 1104 1130 1027 819 160 196
0 0 0 0 58 646 538 542 226 610 1045 1069 993 1116 1291 1127 925 692 567 550 672 770 845 1120 1353 1466 1517 1466 1519 1269 1340 697 1299 1591 1236 1563 735 646 477 530 612 663 901 1023 631 539 378 192 187
0 0 0 159 374 602 577 521 476 688 1141 1007 983 1115 1298 1330 1180 746 608 634 689 812 959 1083 1241 1229 1488 1423 1369 1224 1139 685 820 1172 1289 1347 1211 929 797 617 723 546 564 839 772 392 205 61 18
0 0 0 0 406 583 519 201 416 802 1012 1110 1121 1081 1174 1327 1312 1148 880 861 915 969 972 1198 1068 1100 1219 1072 1083 959 1035 693 595 558 818 1059 1131 981 807 739 795 705 619 628 649 258 256 34 14
0 0 0 0 0 111 356 0 255 578 985 1002 1178 1212 1182 1267 1402 1363 1119 1037 937 940 979 1196 1093 1107 1084 1097 1020 921 807 565 312 217 123 390 682 808 793 739 757 835 678 632 505 83 176 82 153
0 0 0 0 0 0 0 0 0 292 626 764 1227 1319 1384 1339 1311 1423 1390 1302 1224 1049 1073 1045 761 999 1040 994 1063 879 530 507 433 308 158 204 304 502 678 787 860 874 771 724 432 377 650 548 221
0 0 0 0 0 0 0 0 0 0 19 446 957 1203 1417 1405 1567 1523 1461 1407 1375 1320 1110 987 922 956 937 814 677 376 423 820 845 645 707 672 751 792 784 672 866 921 757 770 749 560 732 107 100
0 0 0 0 0 0 0 0 0 1 18 292 650 901 994 1225 1415 1501 1512 1495 1455 1380 1244 1211 1070 948 763 705 657 193 556 944 948 887 771 730 783 786 809 609 840 964 777 754 734 515 222 319 102
0 0 0 0 0 0 0 0 0 0 39 164 366 674 896 1070 999 1221 1380 1436 1494 1391 1301 1316 1216 994 679 555 491 325 561 711 640 749 724 673 747 851 942 941 873 938 833 671 864 822 638 574 162
0 0 0 0 0 0 0 0 0 0 0 0 57 281 675 937 1057 1082 1188 1255 1352 1279 1337 1376 1332 1104 752 435 299 124 0 283 484 564 631 683 762 832 999 1035 946 859 780 590 731 824 696 708 254
0 0 0 0 0 0 0 0 0 0 0 0 0 26 314 611 925 1069 1068 1123 1151 1190 1185 1244 1345 1195 865 522 364 294 202 366 598 585 635 723 929 962 1027 1053 954 810 695 534 617 702 669 612 495
0 0 0 0 0 0 0 0 0 0 0 0 0 0 179 366 626 949 1099 1068 1120 1100 984 1059 1148 1139 994 779 664 536 460 435 416 449 476 686 955 955 901 954 906 798 731 663 610 632 539 408 365
0 0 0 0 0 0 0 0 0 0 0 0 0 0 83 323 315 503 849 964 985 1028 957 866 967 1020 970 822 777 766 657 663 617 547 589 752 759 875 939 970 914 821 752 771 796 730 674 691 477
0 0 0 0 0 0 0 0 0 0 0 0 7 1 82 227 301 361 578 676 903 1027 1039 927 861 909 859 795 750 767 828 814 851 848 770 864 764 738 805 830 842 919 964 866 708 820 658 334 253
0 0 0 0 0 0 0 0 0 0 0 0 13 26 118 394 390 392 603 819 947 1043 1113 1086 996 946 880 809 743 715 734 730 762 799 929 902 912 853 988 1006 943 1128 1019 1026 977 654 281 214 73
0 0 0 0 0 0 0 0 0 0 0 0 0 0 0 469 485 614 766 841 1030 1049 1204 1165 1111 1028 1006 895 865 871 811 754 744 767 687 705 797 842 1047 1091 1076 1182 1287 845 664 618 405 350 273
0 0 0 0 0 0 0 0 0 0 0 0 0 0 0 0 552 642 956 975 1131 1129 1200 1251 1207 1160 1127 1093 1053 1016 978 880 821 757 789 878 972 863 1002 1259 1154 1217 897 932 811 697 371 308 297
0 0 0 0 0 0 0 0 0 0 0 0 0 0 0 0 0 944 988 1086 1235 1163 1159 1236 1349 1330 1294 1307 1351 1298 1273 1175 1028 1029 1033 1118 1035 909 940 1126 1273 1476 1003 1060 652 660 465 361 244
CIN
-149 -62 -164 -132 -117 -84 -39 -33 -51 -62 0 -83 -108 -84 -65 -63 -83 -36 -225 -261 -172 -111 -40 -1 -1 -2 -4 -6 -10 -18 -22 -11 -5 0 -2 -1 -1 -1 -1 -1 -1 0 0 0 0 0 -3 -2 -16
-115 -201 -106 -173 -53 -34 -21 -58 -36 -76 -37 -79 -122 -53 -49 -42 -85 -203 -240 -206 -155 -119 -51 -13 -3 -2 0 0 0 -3 -4 -2 -2 -6 -6 -2 0 0 -1 0 -1 -1 0 -1 -1 0 -6 -2 0
-251 -99 -132 -103 -58 -18 -28 -51 -54 -67 -94 -73 -5 -49 -34 -48 -100 -201 -199 -222 -123 -104 -53 -16 -5 -4 -1 0 0 0 0 0 0 0 -1 -2 -3 0 0 0 -9 0 0 -15 0 0 -6 -4 0
-199 -119 -154 -58 -34 -51 -46 -54 -75 -75 -86 -76 -36 -29 -97 -67 -171 -177 -181 -206 -162 -86 -41 -13 -10 -3 -7 0 0 -4 -2 0 0 0 0 -2 0 0 -1 -1 -7 0 -2 -15 0 0 0 -1 0
-93 -243 -83 -56 -47 -68 -87 -62 -75 -53 -46 -34 -33 -62 -146 -95 -107 -123 -177 -180 -155 -85 -26 -10 -8 -2 -1 -1 0 -2 0 0 0 0 0 0 0 -1 0 -1 -7 -1 -1 -10 0 -1 0 0 0
-167 -287 -60 -28 -53 -80 -77 -55 -62 -46 -22 -49 -42 -102 -117 -59 -102 -99 -138 -143 -98 -87 -16 -3 -1 -2 0 0 -1 -1 0 -4 -1 -1 0 0 0 0 0 0 -3 0 -2 -17 0 0 0 -1 -7
-152 -146 -62 -68 -56 -47 -60 -66 -65 -19 -20 -39 -73 -55 -120 -46 -92 -54 -69 -92 -40 -31 -5 0 0 -1 0 0 0 0 0 -3 -1 -2 0 0 0 0 0 -1 -1 0 -6 -7 0 0 -1 0 -7
-225 -178 -61 -79 -41 -42 -68 -52 -36 -34 -41 -84 -89 -47 -100 -86 -90 -50 -31 -43 -39 -27 -16 0 -1 -1 0 0 0 0 0 -3 0 -1 -2 0 -1 0 0 -2 -1 -1 0 0 0 0 0 -7 -6
-320 0 -46 -38 -40 -44 -93 -66 -79 -87 -63 -75 -98 -60 -93 -126 -106 -60 -44 -31 -22 -22 -37 -4 -4 0 0 0 0 -1 -2 -3 -1 -2 -4 -1 0 0 0 -2 0 0 0 0 0 -3 -6 -2 -10
0 0 0 -119 -65 -57 -78 -72 -95 -72 -88 -96 -135 -130 -139 -135 -98 -136 -182 -143 -91 -53 -38 -22 -26 -9 -2 0 0 -1 -1 0 -1 -1 0 0 0 0 -1 -2 -1 0 0 0 0 -2 0 -3 -1
0 0 0 -78 -60 -73 -77 -89 -134 -81 -94 -104 -116 -185 -156 -128 -89 -150 -163 -145 -142 -103 -52 -45 -31 -7 -10 -5 0 -1 -9 -1 0 0 0 0 0 0 0 0 0 -1 0 0 -1 0 -1 -2 -2
0 0 0 0 -94 -81 -75 -124 -93 -105 -116 -141 -162 -229 -183 -148 -137 -177 -170 -152 -157 -147 -110 -65 -44 -10 -15 -7 -3 -10 -10 -8 0 0 0 0 -13 -2 0 0 0 0 0 0 0 -1 -1 -34 -5
0 0 0 0 -135 -103 -134 -116 -113 -185 -182 -179 -243 -238 -195 -154 -159 -173 -176 -164 -164 -130 -124 -86 -38 -17 -15 -8 -11 -20 -20 -43 -1 0 0 -7 -13 -22 -13 -1 0 0 0 0 -1 0 0 -34 -32
0 0 0 0 -112 -98 -96 -110 -156 -193 -264 -245 -247 -245 -184 -159 -161 -190 -203 -205 -184 -147 -126 -66 -33 -24 -17 -20 -17 -30 -18 -54 -12 -1 -9 -1 -12 -14 -18 -11 -4 -3 0 -2 -3 -15 -19 -23 -22
0 0 -2 -106 -94 -72 -106 -60 -76 -193 -276 -264 -230 -233 -185 -155 -172 -187 -189 -197 -189 -176 -128 -100 -60 -43 -21 -21 -21 -27 -34 -63 -43 -18 -17 -14 -7 -15 -13 -12 -4 -10 -18 -9 -7 -25 -30 -27 -32
0 0 0 0 -98 -106 -71 -12 -66 -217 -214 -206 -261 -254 -231 -188 -159 -175 -181 -166 -181 -157 -154 -94 -88 -72 -48 -46 -46 -54 -42 -66 -70 -65 -43 -38 -26 -24 -22 -16 -4 -9 -19 -22 -20 -25 -14 -64 -70
0 0 0 0 0 -113 -81 0 -77 -215 -208 -187 -241 -260 -257 -221 -186 -172 -186 -188 -172 -167 -171 -127 -108 -105 -98 -56 -43 -52 -63 -85 -99 -114 -117 -88 -57 -46 -33 -24 -20 -20 -18 -26 -32 -57 -30 -26 -14
0 0 0 0 0 0 0 0 0 -183 -188 -214 -231 -247 -247 -247 -228 -185 -170 -162 -151 -168 -169 -149 -152 -116 -111 -74 -41 -52 -100 -103 -96 -105 -108 -96 -83 -66 -55 -35 -29 -24 -19 -19 -40 -25 -14 -9 -12
0 0 0 0 0 0 0 0 0 0 -234 -214 -231 -275 -272 -256 -214 -190 -170 -155 -128 -149 -162 -159 -158 -154 -122 -120 -112 -148 -144 -70 -66 -85 -84 -70 -61 -66 -69 -55 -49 -35 -32 -26 -22 -22 -11 -51 -33
0 0 0 0 0 0 0 0 0 -12 -157 -202 -213 -254 -275 -278 -254 -232 -187 -182 -177 -164 -161 -144 -168 -191 -191 -169 -148 -175 -110 -52 -55 -66 -79 -74 -66 -79 -70 -79 -49 -41 -32 -42 -28 -34 -44 -20 -36
0 0 0 0 0 0 0 0 0 0 -199 -230 -265 -262 -270 -280 -285 -297 -249 -202 -179 -197 -187 -155 -176 -207 -210 -209 -183 -183 -130 -100 -94 -78 -74 -75 -75 -68 -73 -71 -66 -51 -47 -36 -30 -14 -11 -1 -36
0 0 0 0 0 0 0 0 0 0 0 0 -181 -260 -306 -292 -290 -307 -283 -240 -222 -206 -218 -176 -173 -203 -218 -256 -233 -237 0 -133 -109 -82 -68 -69 -75 -75 -81 -80 -84 -60 -52 -43 -38 -16 -9 -1 -18
0 0 0 0 0 0 0 0 0 0 0 0 0 -227 -296 -342 -292 -248 -285 -251 -230 -236 -221 -215 -191 -209 -226 -259 -255 -227 -210 -155 -98 -88 -72 -59 -59 -69 -74 -86 -90 -79 -66 -61 -45 -24 -14 -5 -1
0 0 0 0 0 0 0 0 0 0 0 0 0 0 -276 -373 -348 -258 -251 -242 -247 -257 -283 -250 -236 -229 -241 -269 -248 -224 -191 -168 -140 -131 -110 -77 -42 -46 -61 -70 -86 -83 -68 -70 -62 -52 -36 -18 -17
0 0 0 0 0 0 0 0 0 0 0 0 0 0 -246 -314 -348 -275 -286 -260 -279 -284 -297 -313 -300 -264 -273 -283 -269 -236 -216 -189 -164 -131 -107 -77 -66 -62 -61 -60 -71 -81 -85 -79 -68 -58 -34 -26 -19
0 0 0 0 0 0 0 0 0 0 0 0 -178 -57 -202 -239 -297 -270 -283 -300 -287 -277 -296 -309 -318 -282 -319 -303 -292 -267 -232 -197 -176 -154 -110 -79 -56 -65 -66 -78 -64 -70 -79 -83 -84 -53 -48 -18 -10
0 0 0 0 0 0 0 0 0 0 0 0 -62 -97 -140 -172 -223 -232 -257 -291 -286 -282 -290 -272 -284 -293 -306 -299 -316 -304 -282 -253 -206 -177 -160 -119 -91 -68 -75 -67 -60 -60 -77 -71 -85 -52 -115 -93 -11
0 0 0 0 0 0 0 0 0 0 0 0 0 0 0 -155 -171 -193 -227 -257 -259 -241 -269 -297 -296 -254 -251 -275 -296 -278 -284 -292 -261 -230 -190 -161 -132 -98 -80 -67 -60 -49 -17 -32 -49 -34 -77 -69 -31
0 0 0 0 0 0 0 0 0 0 0 0 0 0 0 0 -148 -149 -214 -252 -283 -239 -229 -233 -275 -286 -257 -258 -269 -263 -273 -309 -298 -252 -210 -172 -149 -131 -88 -77 -62 -34 -38 -37 -31 -30 -60 -55 -32
0 0 0 0 0 0 0 0 0 0 0 0 0 0 0 0 -2 -177 -164 -222 -297 -251 -235 -239 -233 -261 -246 -254 -273 -258 -282 -306 -279 -242 -219 -174 -169 -194 -147 -99 -71 -26 -84 -43 -95 -69 -86 -78 -79
Wind_Speed
27 24 21 17 20 21 25 23 17 25 25 20 27 20 22 18 20 16 22 30 30 31 31 32 31 30 30 30 29 28 28 26 26 26 26 25 25 25 25 25 25 28 30 29 28 28 26 26 31
26 24 19 18 25 28 23 20 22 23 22 22 25 17 18 16 18 19 28 32 30 29 30 30 31 30 30 29 29 28 27 25 24 24 25 25 25 25 26 26 26 29 30 30 30 31 29 30 31
25 17 19 22 26 27 25 21 21 21 22 23 21 14 14 15 16 24 28 33 30 28 28 29 29 30 30 30 29 27 25 24 23 23 24 25 25 26 26 26 28 29 30 30 30 30 31 31 29
20 19 19 24 26 22 21 22 23 23 22 20 18 17 17 14 22 28 30 32 30 27 27 28 28 30 30 29 28 27 25 22 20 21 24 25 25 25 26 26 28 30 29 29 29 28 28 28 24
18 19 23 24 23 20 18 21 22 23 21 20 18 17 18 14 24 28 30 30 29 27 27 28 29 31 30 29 28 26 25 21 19 20 23 24 24 24 25 27 28 28 27 28 28 28 25 28 27
20 19 26 24 22 19 21 21 21 18 20 19 17 20 19 20 23 27 28 29 29 27 27 27 29 30 29 28 27 26 24 21 21 22 22 23 22 22 25 26 25 26 25 27 27 27 26 25 25
20 18 24 22 20 20 22 22 20 19 18 16 19 19 19 20 23 25 25 27 26 27 26 27 28 29 28 27 26 25 25 23 22 22 24 24 22 23 24 25 26 26 25 26 26 25 25 25 20
17 21 22 23 25 24 22 20 19 18 19 20 19 17 19 21 21 22 22 25 25 27 26 27 26 27 28 27 26 25 25 24 23 23 23 23 22 23 23 23 24 26 25 25 24 24 24 24 23
17 20 18 17 19 21 20 20 20 18 19 16 17 17 19 21 21 22 20 20 25 26 26 26 26 26 26 26 25 24 24 24 22 23 22 21 20 21 23 21 25 25 25 24 23 23 23 23 21
19 19 18 16 16 14 17 18 19 20 20 19 20 20 23 22 22 24 24 22 25 25 26 26 26 26 25 25 25 24 23 23 23 22 22 21 21 21 21 22 24 24 24 24 23 22 22 22 20
19 19 16 13 13 12 15 15 17 18 17 16 17 21 25 25 25 25 26 23 23 24 25 26 25 25 25 25 24 24 24 23 22 23 22 23 22 22 22 22 22 23 23 22 22 21 22 22 21
17 14 13 12 14 16 15 17 18 15 17 16 20 24 26 26 26 27 27 26 24 22 23 24 25 25 25 26 25 24 24 24 23 23 22 21 23 23 23 22 22 22 21 20 20 19 19 20 19
13 10 7 9 10 16 16 15 15 16 16 19 22 24 25 25 26 27 27 24 23 23 22 23 24 24 24 25 26 25 24 25 24 24 23 22 23 23 23 21 21 21 21 21 19 20 19 17 17
12 7 9 11 13 15 13 12 14 17 18 19 21 21 23 24 25 26 26 25 23 22 21 21 22 23 22 24 24 25 24 25 25 25 23 23 22 22 22 21 22 22 21 19 19 18 17 16 18
12 18 19 20 16 14 14 11 11 14 16 16 17 19 20 21 22 23 25 25 23 21 19 19 19 20 22 23 24 25 25 25 25 25 25 24 23 22 22 22 22 23 19 18 17 17 13 9 20
18 16 19 22 19 16 14 11 13 12 12 13 15 18 19 19 21 20 20 22 21 19 18 16 16 17 19 22 22 25 25 25 25 26 26 25 24 22 21 21 22 21 18 17 17 14 9 10 15
16 15 18 19 19 17 14 7 12 11 9 11 16 18 19 19 20 20 18 19 20 19 17 10 9 21 21 21 20 24 24 23 25 25 26 25 24 21 21 19 19 17 17 16 12 12 8 10 9
13 15 16 16 14 11 7 7 6 8 10 13 16 16 18 19 20 20 19 19 18 19 17 14 18 30 24 20 18 17 26 26 25 26 26 25 23 22 21 21 19 15 14 18 12 11 8 13 10
10 14 25 15 14 8 7 6 10 9 11 12 16 17 19 20 17 19 20 19 19 20 20 20 21 25 25 23 20 21 23 28 29 27 26 25 24 23 21 21 19 17 17 16 14 5 13 7 12
11 19 28 13 10 10 15 19 9 10 9 11 15 18 19 18 17 18 20 20 21 21 24 23 23 25 26 25 22 20 23 25 26 27 27 26 25 22 22 21 22 20 17 11 10 5 9 22 6
6 12 22 16 26 10 22 16 22 13 9 7 9 20 20 18 17 17 19 20 21 22 24 25 25 25 25 23 20 18 6 19 20 24 25 25 23 20 21 21 20 18 15 11 9 7 5 11 13
3 10 12 21 22 15 20 16 15 21 12 9 6 12 17 19 18 17 18 21 23 24 22 25 25 25 24 18 18 20 20 21 21 19 20 21 20 20 20 20 18 17 11 12 13 11 7 3 12
14 10 18 18 16 15 13 11 13 16 10 25 24 11 9 14 18 20 20 20 22 21 23 25 26 26 24 24 23 21 23 21 17 16 17 18 15 16 17 17 15 15 13 13 12 5 5 5 1
11 13 15 15 14 12 15 11 13 8 7 24 25 24 11 7 15 17 18 16 16 20 22 23 24 25 25 25 25 24 23 21 18 17 16 16 14 9 13 15 18 15 16 14 10 15 16 4 9
12 13 12 9 10 12 14 14 13 2 8 22 27 23 16 8 13 11 12 14 14 18 20 21 23 24 24 23 23 25 25 23 21 20 18 13 9 4 6 7 9 7 12 13 13 11 13 9 4
12 10 11 12 9 12 16 16 20 12 25 25 10 14 13 9 9 13 8 13 14 18 20 19 20 21 22 22 22 22 23 21 21 20 18 14 12 5 3 7 11 10 9 8 7 7 12 25 27
12 12 15 15 18 20 20 20 26 20 10 19 19 19 21 11 6 8 13 13 14 18 21 20 19 20 21 21 20 20 20 21 21 20 18 17 15 13 10 7 8 8 8 7 7 13 19 18 23
14 8 16 18 19 18 17 19 21 24 23 23 24 24 24 18 7 3 9 11 13 18 18 18 18 21 21 21 22 22 22 22 21 20 21 18 16 12 8 9 10 9 3 5 8 7 9 9 20
15 17 17 16 19 21 22 20 18 20 21 25 27 25 24 23 12 0 13 11 10 12 14 16 18 21 21 21 22 22 21 21 20 19 20 18 16 14 10 11 13 10 9 12 14 12 7 14 16
18 16 15 21 20 21 23 22 17 20 23 24 28 29 25 22 26 28 17 12 9 10 11 16 15 20 22 21 21 19 18 19 20 21 20 18 16 15 15 15 13 13 11 10 10 9 8 8 12
Wind_Direction
133 141 135 138 124 121 100 106 143 108 109 127 122 134 131 141 146 144 147 130 121 123 126 131 133 128 130 129 131 132 135 136 132 130 131 130 134 133 132 135 142 127 126 132 134 138 145 148 130
125 124 140 140 107 78 105 119 115 110 111 111 120 136 144 157 166 120 121 130 122 120 124 127 131 127 131 130 135 138 139 139 138 136 135 136 131 129 131 128 137 127 123 119 127 120 137 132 123
128 153 128 111 89 84 93 106 112 117 105 105 118 166 171 175 181 118 125 127 121 119 120 123 126 127 130 133 137 144 146 145 142 145 145 140 138 133 129 130 129 122 118 120 122 108 119 123 116
128 125 126 93 83 106 100 91 83 87 108 115 120 109 112 199 134 139 123 125 122 120 119 120 122 130 137 136 138 143 151 161 161 153 152 151 144 139 133 135 125 116 120 120 122 106 101 102 80
135 120 93 87 79 97 102 104 99 104 117 126 126 120 104 182 126 118 122 126 123 121 123 124 126 138 142 139 140 143 156 165 169 166 160 156 157 148 142 139 129 115 111 124 133 113 96 109 122
125 116 95 72 93 108 86 106 99 116 111 119 126 110 115 90 101 117 123 126 127 122 127 128 138 143 147 146 145 145 157 171 168 161 164 163 166 160 144 148 152 146 104 126 130 109 107 107 120
114 126 95 106 104 93 78 89 105 99 97 113 106 114 117 98 111 118 122 125 126 127 126 133 140 150 150 155 149 143 154 162 166 166 147 151 170 161 152 155 141 143 108 121 118 110 110 117 122
129 100 98 68 47 55 71 55 85 79 76 98 116 118 125 120 115 117 118 126 128 134 132 137 138 143 154 153 152 142 150 163 167 167 160 159 172 163 161 162 161 136 122 121 114 114 116 125 130
128 84 106 104 85 65 69 58 58 88 92 111 133 124 110 110 115 120 120 120 133 138 142 141 142 146 145 156 155 140 155 172 185 170 175 175 185 176 164 173 153 134 132 126 115 118 129 130 119
77 73 89 109 98 96 80 85 55 60 78 84 78 84 103 113 121 131 134 132 139 142 147 146 146 147 147 151 154 148 148 181 188 186 183 191 190 186 179 168 148 139 141 138 127 129 133 153 130
73 75 81 112 101 106 75 102 66 56 97 121 106 105 119 125 130 137 140 139 139 142 146 152 150 150 153 157 149 154 159 189 200 192 187 175 184 182 173 174 167 146 143 143 145 137 155 165 173
64 90 92 106 82 63 73 71 77 113 85 103 105 112 121 129 136 142 143 144 143 142 146 150 154 154 157 162 160 162 161 179 198 200 204 197 176 177 170 151 143 146 139 130 138 131 136 148 145
79 80 128 140 128 44 32 82 79 77 55 79 100 112 120 128 136 143 145 142 143 148 149 152 156 157 155 160 165 165 167 180 193 182 175 175 180 172 160 149 148 153 145 146 137 149 137 123 127
71 183 190 85 83 54 74 79 64 57 69 85 106 113 122 129 134 138 146 149 148 149 148 149 157 158 156 161 163 168 171 180 195 194 184 177 206 185 170 160 165 160 154 143 143 145 136 130 179
69 33 32 16 44 57 73 125 111 68 84 86 109 119 127 131 132 141 147 151 151 149 146 150 154 157 161 163 166 172 179 177 189 198 194 184 196 181 178 180 178 172 151 148 139 135 110 1 265
9 27 23 7 35 43 67 113 64 84 95 103 117 131 139 140 143 143 146 152 151 147 148 144 148 154 159 164 164 175 178 181 185 198 197 187 182 181 182 181 171 168 148 152 154 138 72 97 155
12 19 11 10 37 39 67 169 71 89 114 115 142 149 148 149 156 155 152 153 155 153 148 132 145 163 161 162 161 173 178 175 186 190 195 187 180 170 172 163 162 153 163 161 145 149 101 141 138
2 356 1 12 35 68 95 189 160 126 143 156 158 152 159 160 164 163 164 161 158 161 154 145 158 178 164 158 157 159 185 190 184 188 191 185 182 180 178 182 173 158 160 182 164 162 115 164 140
360 345 288 276 32 56 90 196 226 149 147 152 163 165 171 173 164 167 170 169 167 170 167 163 161 166 164 166 161 165 174 190 198 190 187 188 189 186 181 186 182 173 178 181 179 26 171 130 350
332 315 268 340 41 33 246 258 72 76 118 157 174 184 181 173 169 167 172 169 170 172 175 169 168 167 171 171 167 165 176 185 189 195 197 195 193 191 193 189 197 188 180 162 155 91 6 276 86
321 318 304 330 304 29 336 359 331 40 61 85 168 197 190 181 172 168 170 173 170 173 174 174 173 172 170 168 161 162 133 171 174 187 193 193 192 189 191 192 190 187 179 173 160 145 118 338 328
231 324 326 310 320 345 344 357 8 330 246 50 76 179 191 187 180 172 169 172 175 177 172 177 176 175 172 162 166 171 172 178 178 178 181 185 185 189 190 189 186 187 174 178 178 172 156 48 328
311 324 308 314 326 341 349 7 359 359 208 294 314 12 169 178 178 179 175 171 175 170 173 176 176 178 174 175 177 176 183 183 178 176 180 183 178 180 184 186 182 182 182 185 182 166 164 150 132
321 316 313 319 328 326 336 350 350 20 53 274 297 313 10 124 165 171 173 168 165 168 171 173 175 177 174 176 179 181 183 181 180 183 182 183 179 175 182 186 190 188 191 191 188 195 202 193 187
307 306 308 305 311 318 337 339 341 181 184 257 276 292 349 87 149 155 157 155 155 161 164 166 170 174 175 176 179 184 188 186 187 187 187 182 181 203 192 185 186 196 196 200 201 204 206 205 231
288 289 297 299 303 317 326 330 329 345 296 288 176 13 25 49 122 149 151 149 145 154 158 158 161 167 170 174 179 181 185 187 189 187 183 180 184 202 230 192 194 200 204 209 229 270 219 289 290
289 286 298 302 309 310 310 316 269 321 354 322 313 311 316 33 56 123 142 144 141 147 154 154 154 159 165 169 171 175 179 185 190 189 186 189 188 187 190 199 201 208 214 222 287 313 306 308 314
290 301 291 294 296 302 312 312 318 303 287 292 294 291 295 319 70 84 130 138 140 147 147 149 153 161 163 166 174 179 183 186 189 189 194 194 194 188 188 195 200 203 268 286 216 209 309 278 233
296 290 294 300 296 297 301 307 315 311 309 293 288 287 305 259 183 125 143 143 138 140 143 150 157 165 168 171 176 181 185 186 187 189 192 191 189 186 182 183 189 188 175 188 194 201 196 203 205
296 288 288 290 290 291 294 295 314 313 311 306 288 286 292 289 243 221 161 150 148 151 148 154 154 166 174 173 177 178 179 183 188 195 193 188 186 183 185 187 184 185 186 186 192 188 180 177 186